Weather History for K08D - December, 2012

Change the Weather History Date:

Monday, December 17, 2012

  Actual Average (KMOT) Record (KMOT)
Temperature  
Mean Temperature 19 °F 15 °F  
Max Temperature 21 °F 23 °F 56 °F (1997)
Min Temperature 17 °F 7 °F -32 °F (1906)
Degree Days  
Heating Degree Days 46 50  
Month to date heating degree days 813  
Since 1 July heating degree days 2871  
Moisture  
Dew Point 19 °F    
Average Humidity 100    
Maximum Humidity 100    
Minimum Humidity 100    
Precipitation  
Precipitation 0.00 in 0.01 in 1.11 in (1967)
Month to date precipitation 0.20  
Year to date precipitation 17.01  
Sea Level Pressure  
Sea Level Pressure 29.53 in    
Wind  
Wind Speed 9 mph (SSE)    
Max Wind Speed 12 mph    
Max Gust Speed -    
Visibility 3 miles    
Events Fog    
T = Trace of Precipitation, MM = Missing Value Source: NWS Daily Summary

Daily Weather History Graph

Daily Weather History Graph

Search for Another Location

Airport or City:

Trip Planner

Search our weather history database for the weather conditions in past years. The results will help you decide how hot, cold, wet, or windy it might be!

Date:

Astronomy

Dec. 17, 2012 Rise Set
Actual Time 8:35 AM CST 4:56 PM CST
Civil Twilight 7:59 AM CST 5:32 PM CST
Nautical Twilight 7:19 AM CST 6:12 PM CST
Astronomical Twilight 6:41 AM CST 6:50 PM CST
Moon 11:25 AM CST (12/17) 10:42 PM CST (12/17)
Length of Visible Light 9h 33m
Length of Day
8h 20m
Waxing Crescent, 25% of the Moon is Illuminated
Dec 17
Waxing Crescent
Dec 19
First Quarter
Dec 28
Full
Jan 4
Last Quarter
Jan 11
New

Hourly Weather History & Observations

Time (CST) Temp. Windchill Dew Point Humidity Pressure Visibility Wind Dir Wind Speed Gust Speed Precip Events Conditions
12:15 AM 17.6 °F 7.3 °F 17.6 °F 100% 29.67 in 10.0 mi SSE 8.1 mph - N/A   Overcast
12:35 AM 17.6 °F 7.3 °F 17.6 °F 100% 29.66 in - SSE 8.1 mph - N/A   Overcast
12:55 AM 17.6 °F 7.3 °F 17.6 °F 100% 29.65 in - SSE 8.1 mph - N/A   Overcast
1:15 AM 17.6 °F 6.4 °F 17.6 °F 100% 29.64 in - South 9.2 mph - N/A   Overcast
1:35 AM 17.6 °F 5.0 °F 17.6 °F 100% 29.64 in - South 11.5 mph - N/A   Overcast
1:55 AM 19.4 °F 7.2 °F 19.4 °F 100% 29.63 in - South 11.5 mph - N/A   Overcast
2:15 AM 19.4 °F 7.9 °F 19.4 °F 100% 29.62 in - South 10.4 mph - N/A   Overcast
2:35 AM 19.4 °F 8.6 °F 19.4 °F 100% 29.61 in - SSE 9.2 mph - N/A   Overcast
2:55 AM 19.4 °F 8.6 °F 19.4 °F 100% 29.61 in - South 9.2 mph - N/A   Overcast
3:15 AM 19.4 °F 7.2 °F 19.4 °F 100% 29.61 in - South 11.5 mph - N/A   Overcast
3:35 AM 19.4 °F 7.2 °F 19.4 °F 100% 29.60 in 0.8 mi South 11.5 mph - N/A   Overcast
3:55 AM 19.4 °F 7.9 °F 19.4 °F 100% 29.60 in - South 10.4 mph - N/A   Overcast
4:15 AM 19.4 °F 7.2 °F 19.4 °F 100% 29.59 in - South 11.5 mph - N/A   Overcast
4:35 AM 19.4 °F 8.6 °F 19.4 °F 100% 29.58 in - South 9.2 mph - N/A   Overcast
4:55 AM 19.4 °F 7.9 °F 19.4 °F 100% 29.58 in - South 10.4 mph - N/A   Overcast
5:15 AM 17.6 °F 6.4 °F 17.6 °F 100% 29.58 in - South 9.2 mph - N/A   Overcast
5:35 AM 17.6 °F 5.7 °F 17.6 °F 100% 29.58 in - South 10.4 mph - N/A   Overcast
5:55 AM 17.6 °F 6.4 °F 17.6 °F 100% 29.57 in - South 9.2 mph - N/A   Overcast
6:15 AM 17.6 °F 6.4 °F 17.6 °F 100% 29.57 in - South 9.2 mph - N/A   Overcast
6:35 AM 17.6 °F 6.4 °F 17.6 °F 100% 29.56 in - South 9.2 mph - N/A   Overcast
6:55 AM 17.6 °F 8.2 °F 17.6 °F 100% 29.56 in - South 6.9 mph - N/A   Overcast
7:15 AM 17.6 °F 6.4 °F 17.6 °F 100% 29.56 in - South 9.2 mph - N/A   Overcast
7:35 AM 17.6 °F 7.3 °F 17.6 °F 100% 29.56 in - South 8.1 mph - N/A   Overcast
7:55 AM 17.6 °F 5.7 °F 17.6 °F 100% 29.56 in 0.2 mi South 10.4 mph - N/A Fog Light Freezing Fog
8:15 AM 17.6 °F 6.4 °F 17.6 °F 100% 29.55 in - South 9.2 mph - N/A   Overcast
8:35 AM 17.6 °F - 17.6 °F 100% 29.55 in - North - - N/A   Overcast
8:55 AM 17.6 °F - 17.6 °F 100% 29.55 in - North - - N/A   Overcast
9:15 AM 17.6 °F 5.7 °F 17.6 °F 100% 29.55 in - South 10.4 mph - N/A   Overcast
9:35 AM 17.6 °F - 17.6 °F 100% 29.55 in - North - - N/A   Overcast
9:55 AM 17.6 °F - 17.6 °F 100% 29.54 in - North - - N/A   Overcast
10:15 AM 17.6 °F - 17.6 °F 100% 29.54 in - North - - N/A   Overcast
10:35 AM 17.6 °F - 17.6 °F 100% 29.53 in - North - - N/A   Overcast
10:55 AM 17.6 °F - 17.6 °F 100% 29.53 in - North - - N/A   Overcast
11:15 AM 17.6 °F - 17.6 °F 100% 29.53 in - North - - N/A   Overcast
11:35 AM 17.6 °F - 17.6 °F 100% 29.52 in - North - - N/A   Overcast
11:55 AM 19.4 °F - 19.4 °F 100% 29.51 in - North - - N/A   Overcast
12:15 PM 19.4 °F - 19.4 °F 100% 29.51 in - North - - N/A   Overcast
12:35 PM 17.6 °F - 17.6 °F 100% 29.50 in - North - - N/A   Overcast
12:55 PM 19.4 °F - 19.4 °F 100% 29.50 in - North - - N/A   Overcast
1:15 PM 19.4 °F - 19.4 °F 100% 29.49 in - North - - N/A   Overcast
1:35 PM 19.4 °F - 19.4 °F 100% 29.49 in - North - - N/A   Overcast
1:55 PM 19.4 °F - 19.4 °F 100% 29.48 in - North - - N/A   Overcast
2:15 PM 19.4 °F - 19.4 °F 100% 29.48 in - North - - N/A   Overcast
2:35 PM 19.4 °F - 19.4 °F 100% 29.47 in - North - - N/A   Overcast
2:55 PM 19.4 °F - 19.4 °F 100% 29.47 in - North - - N/A   Overcast
3:15 PM 19.4 °F - 19.4 °F 100% 29.46 in - North - - N/A   Overcast
3:35 PM 19.4 °F 11.5 °F 19.4 °F 100% 29.47 in - ESE 5.8 mph - N/A   Overcast
3:55 PM 19.4 °F - 19.4 °F 100% 29.46 in 0.2 mi North - - N/A Fog Light Freezing Fog
6:35 PM 19.4 °F - 19.4 °F 100% 29.47 in 0.5 mi North - - N/A Fog Light Freezing Fog
6:55 PM 19.4 °F - 19.4 °F 100% 29.47 in 0.8 mi North - - N/A   Overcast
7:15 PM 19.4 °F - 19.4 °F 100% 29.47 in 1.0 mi North - - N/A   Overcast
7:35 PM 19.4 °F - 19.4 °F 100% 29.46 in 2.5 mi North - - N/A   Overcast
7:55 PM 19.4 °F - 19.4 °F 100% 29.46 in 5.0 mi North - - N/A   Overcast
8:15 PM 19.4 °F - 19.4 °F 100% 29.46 in 2.5 mi North - - N/A   Overcast
8:35 PM 19.4 °F - 19.4 °F 100% 29.46 in 0.8 mi North - - N/A   Overcast
8:55 PM 19.4 °F - 19.4 °F 100% 29.46 in 0.5 mi North - - N/A Fog Light Freezing Fog
9:15 PM 19.4 °F - 19.4 °F 100% 29.46 in 0.8 mi North - - N/A   Overcast
9:35 PM 19.4 °F - 19.4 °F 100% 29.46 in 0.8 mi North - - N/A   Overcast
9:55 PM 21.2 °F 10.1 °F 21.2 °F 100% 29.45 in 0.8 mi SE 10.4 mph - N/A   Overcast
10:15 PM 21.2 °F - 21.2 °F 100% 29.45 in 1.0 mi North - - N/A   Overcast
10:35 PM 21.2 °F 10.1 °F 21.2 °F 100% 29.45 in 0.8 mi SSE 10.4 mph - N/A   Overcast
10:55 PM 21.2 °F 11.7 °F 21.2 °F 100% 29.45 in 2.5 mi ESE 8.1 mph - N/A   Overcast
11:15 PM 19.4 °F 7.9 °F 19.4 °F 100% 29.45 in 7.0 mi SE 10.4 mph - N/A   Overcast
11:35 PM 19.4 °F 8.6 °F 19.4 °F 100% 29.46 in 10.0 mi SE 9.2 mph - N/A   Overcast
11:55 PM 21.2 °F 11.7 °F 21.2 °F 100% 29.46 in 10.0 mi SE 8.1 mph - N/A   Overcast